STARLINK-2754 (48641 NORAD) Tracking and Keplerian Element Data

This shows tracking and keplerian element data for the satellite.

Feedback or suggestion? Click here.




ElementValue
Catalog48641
NameSTARLINK-2754
Epoch Orbit1135
Epoch Day214.41469103
Epoch Year2021
RAAN104.6531
Inclination53.0558
Eccentricity0.0001706
Argument of Perigee83.1703
Mean Anonmoly276.948
Mean Motion15.06395802
Decay Rate7.38E-06
L11 48641U 21044D 21214.41469103 .00000738 00000-0 68423-4 0 9997
L22 48641 53.0558 104.6531 0001706 83.1703 276.9480 15.06395802 11352

Live tracking and technical data element details for STARLINK-2754 (NORAD 48641). STARLINK-2754 can be tracked NOW for your location showing map with azimuth and elevation plus other details from your city location.

Track the satellite on the map from your city or location and see movement details for azimuth, elevation, latitude, longitude, range, height, and movement on the map or in text.







IsCatalogInMostPopularTable: catalog: 48641, numindb: 11
Update: records affected: 1



GetName: 48641 STARLINK-2754

Hit Count: updated at: Tue, 03 Aug 2021 19:58:11 GMT